Location: Newark
(60.6561°N, 46.5772°E)
Time: 15:07:57
(UTC+00:00)

Tiros 1 despin weight - Pass Details

Date: 28 October 2019
Orbit: 594 x 642 km, 48.2° (Epoch: 14 November)

Event Time Altitude Azimuth Distance (km) Brightness Sun altitude
Rises 21:49:34 0° 247° (WSW) 2,926 - -40.8°
Reaches altitude 10° 21:52:33 10° 228° (SW) 2,024 - -40.7°
Maximum altitude 21:55:33 17° 188° (S) 1,611 - -40.5°
Drops below altitude 10° 21:58:34 10° 148° (SSE) 2,033 - -40.3°
Sets 22:01:35 0° 128° (SE) 2,943 - -40.2°
